Flood From: 24-02-2018 06:00 Until: 25-02-2018 06:00 warning for: Flood Level: Yellow info button

Although rather usual in this region, locally or potentially dangerous phenomena are expected. (such as local winds, summer thunderstorms, rising streams or high waves) Be aware and pay attention to the latest weather updates, especially if you carry out activities exposed to weather or close to a stream or shoreline. 


Meteo18 Weather Cam more information Meteo18 Weather Cam


Thunder radar more information blitzortung!


Rain radar more information rain snow radar


Visit our other weather sites:

Template documentation
and downloads

And another site



Weather Underground History page Text

Daily Summary for February 26, 2017 Units:  Metric    English   Both
« Previous Day
Next Day »
Daily Weekly Monthly Yearly Custom
  High: Low: Average:
Temperature: -17.8 °C -17.3 °C -14.2 °C
Dew Point: -17.8 °C -18.2 °C -15.5 °C
Humidity: Humidity % 72 % 85 %
Wind Speed: 0 km/h 0 km/h 9.8 km/h
Wind Gust: 0 km/h - -
Wind:- - SW
Pressure: 0 hPa 34361.1 hPa -
Precipitation: 0 mm    
Historical Graphs
 
 
Tabular Data for February 26, 2017
Time Temperature Dew Point Pressure Wind Wind Speed Wind Gust Humidity Rainfall Rate (Hourly)
-17.8 °C -17.8 °C 0 hPa Calm     Humidity % 0 mm
00:02 -15.8 °C -17.9 °C 34520.3 hPa Calm     76 % 0 mm
00:12 -15.9 °C -17.9 °C 34520.3 hPa Calm     77 % 0 mm
00:17 -15.8 °C -17.7 °C 34520.3 hPa Calm     78 % 0 mm
00:22 -15.8 °C -17.7 °C 34520.3 hPa Calm   2.6 km/h 78 % 0 mm
00:27 -15.9 °C -17.8 °C 34510.1 hPa Calm   2.6 km/h 78 % 0 mm
00:32 -15.9 °C -17.8 °C 34510.1 hPa Calm   7.7 km/h 79 % 0 mm
00:42 -16.3 °C -18 °C 34510.1 hPa Calm   7.7 km/h 80 % 0 mm
00:47 -16.3 °C -17.9 °C 34510.1 hPa Calm   7.7 km/h 81 % 0 mm
00:52 -16.4 °C -18 °C 34510.1 hPa Calm   2.6 km/h 82 % 0 mm
00:57 -16.5 °C -17.9 °C 34496.6 hPa Calm   5.1 km/h 83 % 0 mm
01:02 -16.5 °C -17.8 °C 34496.6 hPa Calm   5.1 km/h 84 % 0 mm
01:12 -15.8 °C -17.4 °C 34510.1 hPa SW 5.1 km/h 7.7 km/h 81 % 0 mm
01:17 -15.6 °C -17.6 °C 34496.6 hPa SSW 2.6 km/h 7.7 km/h 78 % 0 mm
01:22 -15.7 °C -17.6 °C 34496.6 hPa SSW 5.1 km/h 7.7 km/h 79 % 0 mm
01:27 -15.8 °C -17.6 °C 34496.6 hPa SSW 5.1 km/h 7.7 km/h 79 % 0 mm
01:32 -15.7 °C -17.6 °C 34496.6 hPa SSW 2.6 km/h 7.7 km/h 79 % 0 mm
01:37 -15.7 °C -17.5 °C 34496.6 hPa SW 2.6 km/h 7.7 km/h 79 % 0 mm
01:42 -15.6 °C -17.6 °C 34496.6 hPa Calm   7.7 km/h 78 % 0 mm
01:47 -15.7 °C -17.6 °C 34496.6 hPa Calm   7.7 km/h 78 % 0 mm
01:52 -15.7 °C -17.7 °C 34496.6 hPa Calm   7.7 km/h 78 % 0 mm
01:57 -15.8 °C -17.6 °C 34496.6 hPa Calm   2.6 km/h 79 % 0 mm
02:02 -15.8 °C -17.6 °C 34496.6 hPa Calm   2.6 km/h 79 % 0 mm
02:12 -16.1 °C -17.8 °C 34496.6 hPa Calm   2.6 km/h 80 % 0 mm
02:17 -16.1 °C -17.7 °C 34496.6 hPa Calm     81 % 0 mm
02:22 -16.2 °C -17.9 °C 34496.6 hPa Calm     80 % 0 mm
02:32 -16.2 °C -17.8 °C 34496.6 hPa Calm     82 % 0 mm
02:37 -16.2 °C -17.8 °C 34496.6 hPa Calm     82 % 0 mm
02:42 -16.3 °C -17.8 °C 34496.6 hPa Calm     82 % 0 mm
02:47 -16.4 °C -17.9 °C 34496.6 hPa Calm     82 % 0 mm
02:57 -16.6 °C -17.9 °C 34496.6 hPa Calm     84 % 0 mm
03:02 -16.7 °C -18.1 °C 34496.6 hPa Calm     84 % 0 mm
03:12 -16.8 °C -18.1 °C 34496.6 hPa Calm     85 % 0 mm
03:17 -16.9 °C -18.1 °C 34496.6 hPa Calm     86 % 0 mm
03:22 -16.9 °C -18.1 °C 34496.6 hPa Calm     86 % 0 mm
03:32 -16.8 °C -17.9 °C 34496.6 hPa Calm     86 % 0 mm
03:37 -16.7 °C -17.9 °C 34496.6 hPa Calm     86 % 0 mm
03:42 -16.7 °C -17.9 °C 34496.6 hPa Calm     86 % 0 mm
03:47 -16.7 °C -18 °C 34496.6 hPa Calm     85 % 0 mm
03:52 -16.8 °C -18.1 °C 34496.6 hPa Calm     85 % 0 mm
03:57 -16.8 °C -18 °C 34496.6 hPa Calm     86 % 0 mm
04:02 -16.8 °C -18 °C 34496.6 hPa Calm     86 % 0 mm
04:12 -16.8 °C -17.9 °C 34486.4 hPa Calm   2.6 km/h 87 % 0 mm
04:17 -16.8 °C -18 °C 34486.4 hPa Calm   2.6 km/h 86 % 0 mm
04:22 -16.9 °C -18.1 °C 34486.4 hPa Calm   2.6 km/h 86 % 0 mm
04:27 -17.1 °C -18.1 °C 34486.4 hPa Calm   2.6 km/h 87 % 0 mm
04:32 -17.1 °C -18.1 °C 34486.4 hPa Calm   2.6 km/h 88 % 0 mm
04:37 -17.1 °C -18.1 °C 34486.4 hPa Calm     88 % 0 mm
04:42 -17.1 °C -18.1 °C 34486.4 hPa Calm     88 % 0 mm
04:47 -17.1 °C -18.1 °C 34486.4 hPa Calm     88 % 0 mm
04:52 -17.1 °C -18.1 °C 34486.4 hPa Calm     88 % 0 mm
04:57 -17.2 °C -18.2 °C 34486.4 hPa Calm     88 % 0 mm
05:02 -17.2 °C -18.2 °C 34486.4 hPa Calm     88 % 0 mm
05:07 -17.2 °C -18.1 °C 34486.4 hPa Calm     89 % 0 mm
05:12 -17.2 °C -18.1 °C 34486.4 hPa Calm     89 % 0 mm
05:22 -17.1 °C -18 °C 34486.4 hPa Calm     89 % 0 mm
05:32 -17.1 °C -17.9 °C 34486.4 hPa Calm     89 % 0 mm
05:37 -17.1 °C -18.1 °C 34486.4 hPa Calm     88 % 0 mm
05:42 -17.1 °C -18.1 °C 34486.4 hPa Calm     88 % 0 mm
05:47 -17.1 °C -18.1 °C 34486.4 hPa Calm     88 % 0 mm
05:52 -17.1 °C -18.1 °C 34486.4 hPa Calm     88 % 0 mm
05:57 -17.1 °C -18.1 °C 34486.4 hPa Calm     88 % 0 mm
06:02 -17.1 °C -18.1 °C 34486.4 hPa Calm     88 % 0 mm
06:07 -17.2 °C -18.1 °C 34486.4 hPa Calm     89 % 0 mm
06:12 -17.2 °C -18.1 °C 34486.4 hPa Calm     89 % 0 mm
06:17 -17.1 °C -18 °C 34486.4 hPa Calm     89 % 0 mm
06:22 -17.1 °C -17.9 °C 34486.4 hPa Calm     89 % 0 mm
06:27 -17 °C -18 °C 34486.4 hPa Calm     88 % 0 mm
06:32 -17 °C -18 °C 34486.4 hPa Calm     88 % 0 mm
06:42 -17.1 °C -18.1 °C 34486.4 hPa Calm     88 % 0 mm
06:47 -17.1 °C -17.9 °C 34486.4 hPa Calm     89 % 0 mm
06:52 -17.1 °C -18.1 °C 34496.6 hPa NNE 2.6 km/h   88 % 0 mm
06:57 -17.1 °C -18 °C 34496.6 hPa Calm     89 % 0 mm
07:02 -17.1 °C -18 °C 34496.6 hPa Calm   5.1 km/h 89 % 0 mm
07:12 -17.1 °C -18 °C 34496.6 hPa Calm   5.1 km/h 89 % 0 mm
07:17 -17.1 °C -18 °C 34496.6 hPa Calm     89 % 0 mm
07:22 -17.1 °C -18 °C 34496.6 hPa Calm     89 % 0 mm
07:32 -17.2 °C -18.1 °C 34496.6 hPa Calm   2.6 km/h 89 % 0 mm
07:37 -17.2 °C -18.1 °C 34486.4 hPa Calm     89 % 0 mm
07:42 -17.3 °C -18.1 °C 34486.4 hPa Calm     90 % 0 mm
07:52 -17.3 °C -18.2 °C 34496.6 hPa Calm   2.6 km/h 90 % 0 mm
08:02 -17.3 °C -18 °C 34496.6 hPa Calm     91 % 0 mm
08:07 -17.2 °C -17.9 °C 34510.1 hPa Calm     91 % 0 mm
08:12 -17.1 °C -17.9 °C 34510.1 hPa Calm     90 % 0 mm
08:22 -16.9 °C -17.8 °C 34496.6 hPa Calm     89 % 0 mm
08:32 -16.9 °C -17.8 °C 34510.1 hPa Calm     89 % 0 mm
08:37 -16.9 °C -17.8 °C 34510.1 hPa Calm   5.1 km/h 89 % 0 mm
08:42 -16.9 °C -17.7 °C 34520.3 hPa Calm   5.1 km/h 90 % 0 mm
08:52 -16.8 °C -17.7 °C 34520.3 hPa Calm   5.1 km/h 89 % 0 mm
09:02 -16.6 °C -17.6 °C 34510.1 hPa Calm   2.6 km/h 88 % 0 mm
09:07 -16.4 °C -17.4 °C 34496.6 hPa Calm     88 % 0 mm
09:12 -16.3 °C -17.4 °C 34510.1 hPa Calm     87 % 0 mm
09:17 -16.2 °C -17.3 °C 34520.3 hPa Calm   7.7 km/h 87 % 0 mm
09:22 -16.2 °C -17.3 °C 34510.1 hPa Calm   7.7 km/h 86 % 0 mm
09:32 -15.9 °C -17.2 °C 34510.1 hPa Calm   7.7 km/h 84 % 0 mm
09:42 -15.6 °C -17 °C 34520.3 hPa Calm   2.6 km/h 84 % 0 mm
09:52 -15.3 °C -16.7 °C 34520.3 hPa SSW 2.6 km/h 2.6 km/h 84 % 0 mm
10:02 -15.1 °C -16.7 °C 34520.3 hPa South 2.6 km/h 5.1 km/h 81 % 0 mm
10:12 -14.7 °C -16.4 °C 34520.3 hPa SW 7.7 km/h 7.7 km/h 80 % 0 mm
10:17 -14.6 °C -16.5 °C 34510.1 hPa SSE 2.6 km/h 10.3 km/h 78 % 0 mm
10:22 -14.4 °C -16.5 °C 34510.1 hPa SW 2.6 km/h 10.3 km/h 77 % 0 mm
10:32 -14.2 °C -16.4 °C 34510.1 hPa SW 10.3 km/h 10.3 km/h 76 % 0 mm
10:42 -14 °C -16.4 °C 34520.3 hPa SSW 12.9 km/h 18.2 km/h 74 % 0 mm
10:47 -13.8 °C -16.4 °C 34520.3 hPa West 18.2 km/h 33.6 km/h 72 % 0 mm
10:52 -13.8 °C -16.4 °C 34520.3 hPa SW 15.6 km/h 33.6 km/h 72 % 0 mm
10:57 -13.7 °C -16.2 °C 34520.3 hPa SW 7.7 km/h 33.6 km/h 73 % 0 mm
11:02 -13.7 °C -16.3 °C 34520.3 hPa SW 7.7 km/h 33.6 km/h 72 % 0 mm
11:12 -13.6 °C -15.9 °C 34520.3 hPa SW 10.3 km/h 28.5 km/h 75 % 0 mm
11:17 -13.6 °C -15.9 °C 34510.1 hPa SW 20.8 km/h 28.5 km/h 74 % 0 mm
11:22 -13.4 °C -15.8 °C 34510.1 hPa SW 12.9 km/h 28.5 km/h 75 % 0 mm
11:32 -13.3 °C -15.7 °C 34520.3 hPa SW 10.3 km/h 25.9 km/h 75 % 0 mm
11:42 -13.1 °C -15.3 °C 34510.1 hPa SW 20.8 km/h 20.8 km/h 76 % 0 mm
11:52 -13 °C -15.2 °C 34510.1 hPa SSW 18.2 km/h 28.5 km/h 76 % 0 mm
12:02 -12.9 °C -15.3 °C 34510.1 hPa SW 23.3 km/h 36.2 km/h 75 % 0 mm
12:12 -12.8 °C -15.1 °C 34510.1 hPa SW 23.3 km/h 38.8 km/h 76 % 0 mm
12:17 -12.8 °C -15 °C 34510.1 hPa SW 23.3 km/h 38.8 km/h 76 % 0 mm
12:22 -12.7 °C -14.9 °C 34496.6 hPa SW 25.9 km/h 38.8 km/h 76 % 0 mm
12:27 -12.7 °C -14.9 °C 34496.6 hPa WSW 28.5 km/h 38.8 km/h 76 % 0 mm
12:32 -12.7 °C -14.8 °C 34496.6 hPa SW 36.2 km/h 41.4 km/h 77 % 0 mm
12:42 -12.6 °C -14.7 °C 34496.6 hPa SSW 20.8 km/h 41.4 km/h 77 % 0 mm
12:52 -12.6 °C -14.7 °C 34496.6 hPa SSW 33.6 km/h 38.8 km/h 77 % 0 mm
12:57 -12.6 °C -14.7 °C 34496.6 hPa SW 38.8 km/h 41.4 km/h 77 % 0 mm
13:02 -12.6 °C -14.6 °C 34486.4 hPa SSW 23.3 km/h 41.4 km/h 78 % 0 mm
13:12 -12.5 °C -14.5 °C 34486.4 hPa WSW 25.9 km/h 41.4 km/h 78 % 0 mm
13:17 -12.4 °C -14.4 °C 34486.4 hPa SW 15.6 km/h 44.1 km/h 79 % 0 mm
13:22 -12.4 °C -14.4 °C 34486.4 hPa WSW 25.9 km/h 44.1 km/h 79 % 0 mm
13:32 -12.4 °C -14.3 °C 34476.3 hPa SW 31.1 km/h 46.7 km/h 80 % 0 mm
13:42 -12.4 °C -14.3 °C 34476.3 hPa SW 25.9 km/h 46.7 km/h 79 % 0 mm
13:47 -12.3 °C -14.2 °C 34476.3 hPa SSW 23.3 km/h 41.4 km/h 80 % 0 mm
13:52 -12.3 °C -14.1 °C 34476.3 hPa SW 33.6 km/h 41.4 km/h 81 % 0 mm
14:02 -12.3 °C -13.9 °C 34476.3 hPa SW 20.8 km/h 44.1 km/h 82 % 0 mm
14:12 -12.3 °C -13.8 °C 34462.7 hPa WSW 15.6 km/h 44.1 km/h 83 % 0 mm
14:17 -12.3 °C -13.8 °C 34462.7 hPa SW 23.3 km/h 38.8 km/h 83 % 0 mm
14:22 -12.3 °C -13.8 °C 34462.7 hPa SW 20.8 km/h 38.8 km/h 83 % 0 mm
14:27 -12.2 °C -13.6 °C 34462.7 hPa WSW 25.9 km/h 38.8 km/h 84 % 0 mm
14:32 -12.1 °C -13.7 °C 34452.6 hPa West 36.2 km/h 38.8 km/h 83 % 0 mm
14:42 -12.2 °C -13.6 °C 34452.6 hPa SW 20.8 km/h 36.2 km/h 84 % 0 mm
14:47 -12.1 °C -13.4 °C 34452.6 hPa SW 28.5 km/h 36.2 km/h 85 % 0 mm
14:52 -12.1 °C -13.4 °C 34452.6 hPa SW 15.6 km/h 36.2 km/h 85 % 0 mm
14:57 -12.1 °C -13.4 °C 34452.6 hPa SW 25.9 km/h 36.2 km/h 85 % 0 mm
15:02 -12.1 °C -13.4 °C 34452.6 hPa SSW 20.8 km/h 36.2 km/h 85 % 0 mm
15:12 -12.1 °C -13.5 °C 34452.6 hPa SW 20.8 km/h 36.2 km/h 84 % 0 mm
15:17 -12.1 °C -13.5 °C 34452.6 hPa SW 12.9 km/h 33.6 km/h 84 % 0 mm
15:22 -12 °C -13.4 °C 34442.4 hPa WSW 12.9 km/h 33.6 km/h 84 % 0 mm
15:27 -11.9 °C -13.4 °C 34442.4 hPa SW 18.2 km/h 28.5 km/h 84 % 0 mm
15:32 -11.9 °C -13.3 °C 34442.4 hPa SSW 25.9 km/h 28.5 km/h 84 % 0 mm
15:37 -11.9 °C -13.2 °C 34442.4 hPa SSE 23.3 km/h 33.6 km/h 85 % 0 mm
15:42 -11.9 °C -13.2 °C 34442.4 hPa SW 20.8 km/h 33.6 km/h 85 % 0 mm
15:47 -11.9 °C -13.2 °C 34442.4 hPa SSW 7.7 km/h 33.6 km/h 85 % 0 mm
15:52 -11.9 °C -13.2 °C 34442.4 hPa SSW 12.9 km/h 33.6 km/h 85 % 0 mm
15:57 -11.9 °C -13.2 °C 34442.4 hPa SW 7.7 km/h 28.5 km/h 85 % 0 mm
16:02 -11.9 °C -13.2 °C 34442.4 hPa WSW 10.3 km/h 28.5 km/h 85 % 0 mm
16:12 -12 °C -13.2 °C 34442.4 hPa SSW 10.3 km/h 25.9 km/h 86 % 0 mm
16:17 -12 °C -13.2 °C 34442.4 hPa SSW 12.9 km/h 28.5 km/h 86 % 0 mm
16:22 -12 °C -13.2 °C 34442.4 hPa SW 15.6 km/h 28.5 km/h 86 % 0 mm
16:32 -11.9 °C -13.1 °C 34442.4 hPa SW 12.9 km/h 25.9 km/h 87 % 0 mm
16:37 -11.9 °C -13.1 °C 34442.4 hPa SSW 15.6 km/h 25.9 km/h 87 % 0 mm
16:42 -12 °C -13.1 °C 34442.4 hPa SW 15.6 km/h 25.9 km/h 88 % 0 mm
16:47 -12.1 °C -13 °C 34442.4 hPa SW 12.9 km/h 25.9 km/h 89 % 0 mm
16:52 -12.1 °C -13.1 °C 34442.4 hPa SSW 7.7 km/h 23.3 km/h 89 % 0 mm
16:57 -12.1 °C -13.1 °C 34442.4 hPa SW 7.7 km/h 20.8 km/h 89 % 0 mm
17:02 -12.1 °C -13 °C 34442.4 hPa WSW 7.7 km/h 20.8 km/h 89 % 0 mm
17:07 -11.9 °C -13.1 °C 34442.4 hPa SW 10.3 km/h 12.9 km/h 87 % 0 mm
17:12 -11.8 °C -13.1 °C 34428.8 hPa SW 18.2 km/h 18.2 km/h 86 % 0 mm
17:17 -11.8 °C -13 °C 34442.4 hPa SW 12.9 km/h 18.2 km/h 86 % 0 mm
17:22 -11.7 °C -13.1 °C 34442.4 hPa SW 10.3 km/h 20.8 km/h 85 % 0 mm
17:27 -11.7 °C -13 °C 34428.8 hPa SW 10.3 km/h 20.8 km/h 86 % 0 mm
17:32 -11.8 °C -12.9 °C 34428.8 hPa SW 15.6 km/h 20.8 km/h 87 % 0 mm
17:37 -11.8 °C -13 °C 34428.8 hPa SSW 12.9 km/h 20.8 km/h 87 % 0 mm
17:42 -11.8 °C -13 °C 34428.8 hPa SW 10.3 km/h 20.8 km/h 87 % 0 mm
17:47 -11.8 °C -13 °C 34428.8 hPa SSW 12.9 km/h 20.8 km/h 86 % 0 mm
17:52 -11.8 °C -13 °C 34428.8 hPa SW 12.9 km/h 20.8 km/h 86 % 0 mm
17:57 -11.8 °C -13 °C 34428.8 hPa SW 20.8 km/h 23.3 km/h 86 % 0 mm
18:02 -11.7 °C -13 °C 34428.8 hPa SW 12.9 km/h 23.3 km/h 86 % 0 mm
18:12 -11.8 °C -13 °C 34428.8 hPa SW 15.6 km/h 31.1 km/h 86 % 0 mm
18:17 -11.8 °C -13 °C 34428.8 hPa SSE 10.3 km/h 31.1 km/h 87 % 0 mm
18:22 -11.8 °C -13 °C 34428.8 hPa SW 20.8 km/h 28.5 km/h 87 % 0 mm
18:32 -11.8 °C -13 °C 34428.8 hPa SSW 7.7 km/h 28.5 km/h 87 % 0 mm
18:37 -11.9 °C -13.1 °C 34428.8 hPa SW 7.7 km/h 28.5 km/h 87 % 0 mm
18:42 -11.9 °C -13.1 °C 34428.8 hPa SSW 10.3 km/h 25.9 km/h 87 % 0 mm
18:47 -11.9 °C -13.1 °C 34428.8 hPa SW 25.9 km/h 25.9 km/h 87 % 0 mm
18:57 -11.9 °C -12.9 °C 34428.8 hPa WSW 7.7 km/h 36.2 km/h 88 % 0 mm
19:02 -11.9 °C -13 °C 34428.8 hPa SW 12.9 km/h 36.2 km/h 88 % 0 mm
19:12 -12 °C -13.1 °C 34428.8 hPa SW 23.3 km/h 33.6 km/h 88 % 0 mm
19:17 -12.1 °C -13 °C 34428.8 hPa SW 18.2 km/h 31.1 km/h 89 % 0 mm
19:22 -12.1 °C -13 °C 34428.8 hPa SW 15.6 km/h 31.1 km/h 90 % 0 mm
19:32 -12.2 °C -12.9 °C 34428.8 hPa SW 18.2 km/h 31.1 km/h 91 % 0 mm
19:42 -12.2 °C -12.9 °C 34428.8 hPa SW 15.6 km/h 25.9 km/h 91 % 0 mm
19:47 -12.2 °C -13 °C 34428.8 hPa SW 12.9 km/h 23.3 km/h 91 % 0 mm
19:52 -12.3 °C -13.1 °C 34428.8 hPa SW 10.3 km/h 23.3 km/h 91 % 0 mm
19:57 -12.3 °C -12.9 °C 34428.8 hPa SW 18.2 km/h 23.3 km/h 92 % 0 mm
20:02 -12.3 °C -13.1 °C 34428.8 hPa SW 12.9 km/h 23.3 km/h 91 % 0 mm
20:07 -12.2 °C -13 °C 34428.8 hPa SW 15.6 km/h 25.9 km/h 91 % 0 mm
20:12 -12.2 °C -13 °C 34418.7 hPa SW 12.9 km/h 25.9 km/h 91 % 0 mm
20:17 -12.3 °C -13.1 °C 34418.7 hPa SW 12.9 km/h 28.5 km/h 91 % 0 mm
20:22 -12.3 °C -13.1 °C 34418.7 hPa WSW 20.8 km/h 28.5 km/h 91 % 0 mm
20:32 -12.3 °C -13.2 °C 34418.7 hPa SW 25.9 km/h 28.5 km/h 90 % 0 mm
20:42 -12.3 °C -13.2 °C 34418.7 hPa SSW 10.3 km/h 25.9 km/h 90 % 0 mm
20:47 -12.2 °C -13.1 °C 34418.7 hPa SW 12.9 km/h 25.9 km/h 90 % 0 mm
20:52 -12.2 °C -13.1 °C 34418.7 hPa SW 18.2 km/h 25.9 km/h 90 % 0 mm
20:57 -12.3 °C -13.2 °C 34418.7 hPa SSW 2.6 km/h 23.3 km/h 90 % 0 mm
21:02 -12.2 °C -13.1 °C 34405.1 hPa SW 10.3 km/h 23.3 km/h 90 % 0 mm
21:12 -12.2 °C -13.1 °C 34405.1 hPa SW 15.6 km/h 23.3 km/h 90 % 0 mm
21:17 -12.3 °C -13.2 °C 34405.1 hPa SW 12.9 km/h 25.9 km/h 90 % 0 mm
21:22 -12.3 °C -13.2 °C 34405.1 hPa SSW 12.9 km/h 25.9 km/h 90 % 0 mm
21:32 -12.3 °C -13.2 °C 34405.1 hPa SSW 20.8 km/h 23.3 km/h 90 % 0 mm
21:37 -12.3 °C -13.2 °C 34405.1 hPa SW 23.3 km/h 31.1 km/h 90 % 0 mm
21:42 -12.3 °C -13.2 °C 34405.1 hPa SW 20.8 km/h 31.1 km/h 90 % 0 mm
21:47 -12.4 °C -13.3 °C 34405.1 hPa SSW 10.3 km/h 28.5 km/h 90 % 0 mm
21:52 -12.4 °C -13.3 °C 34395 hPa SSW 10.3 km/h 28.5 km/h 90 % 0 mm
21:57 -12.4 °C -13.3 °C 34395 hPa SSW 12.9 km/h 23.3 km/h 90 % 0 mm
22:02 -12.4 °C -13.3 °C 34395 hPa SSW 15.6 km/h 23.3 km/h 90 % 0 mm
22:12 -12.4 °C -13.3 °C 34395 hPa SSW 18.2 km/h 25.9 km/h 90 % 0 mm
22:17 -12.4 °C -13.3 °C 34395 hPa SSW 15.6 km/h 28.5 km/h 90 % 0 mm
22:22 -12.4 °C -13.3 °C 34395 hPa SW 20.8 km/h 31.1 km/h 90 % 0 mm
22:27 -12.4 °C -13.3 °C 34395 hPa SSW 15.6 km/h 31.1 km/h 90 % 0 mm
22:32 -12.4 °C -13.3 °C 34384.8 hPa SSW 20.8 km/h 31.1 km/h 90 % 0 mm
22:42 -12.4 °C -13.3 °C 34384.8 hPa SSW 12.9 km/h 31.1 km/h 89 % 0 mm
22:47 -12.4 °C -13.3 °C 34384.8 hPa SW 28.5 km/h 33.6 km/h 89 % 0 mm
22:52 -12.3 °C -13.3 °C 34384.8 hPa SW 12.9 km/h 33.6 km/h 89 % 0 mm
23:02 -12.4 °C -13.3 °C 34384.8 hPa SSW 12.9 km/h 31.1 km/h 89 % 0 mm
23:12 -12.4 °C -13.4 °C 34384.8 hPa SW 20.8 km/h 31.1 km/h 89 % 0 mm
23:17 -12.4 °C -13.4 °C 34371.3 hPa SSW 15.6 km/h 25.9 km/h 89 % 0 mm
23:22 -12.4 °C -13.4 °C 34384.8 hPa SSW 10.3 km/h 28.5 km/h 89 % 0 mm
23:27 -12.4 °C -13.4 °C 34371.3 hPa SSW 15.6 km/h 28.5 km/h 89 % 0 mm
23:32 -12.4 °C -13.4 °C 34371.3 hPa SSW 18.2 km/h 28.5 km/h 89 % 0 mm
23:37 -12.4 °C -13.4 °C 34371.3 hPa SSW 18.2 km/h 28.5 km/h 89 % 0 mm
23:42 -12.5 °C -13.4 °C 34371.3 hPa SSW 7.7 km/h 28.5 km/h 89 % 0 mm
23:47 -12.6 °C -13.5 °C 34361.1 hPa South 12.9 km/h 25.9 km/h 89 % 0 mm
23:52 -12.6 °C -13.5 °C 34361.1 hPa SW 18.2 km/h 25.9 km/h 89 % 0 mm
23:57 -12.6 °C -13.5 °C 34361.1 hPa SSW 18.2 km/h 23.3 km/h 89 % 0 mm
Meteo18
Compliments of Weather Underground - 4 mb

Script developed by  Jim McMurry - jmcmurry@mwt.net Adapted for the template by  Wim van der Kuil - Leuven-Template.eu

You find our weather info also at:

European Weather Network

Weather Underground

Equipment we use:

Weather-station
Davis Vue

Weather-program
Meteobridge

Weather-server
Raspberry PI 2 B+

Provider
1 and 1

Davis Vue

Meteobridge

Raspberry PI 2 B+

1 and 1